EHI
0 0 0 0 0 0 0 0 0 0 0 0 0 0 0 0 0 0 0 0 0 0 0 0 0 0 0 0 0 0 0 0 0 0 0 0 0 0 0 0 0 0 0 0
0 0 0 0 0 0 0 0 0 0 0 0 0 0 0 0 0 0 0 0 0 0 0 0 0 0 0 0 0 0 0 0 0 0 0 0 0 0 0 0 0 0 0 0
0 0 0 0 0 0 0 0 0 0 0 0 0 0 0 0 0 0 0 0 0 0 0 0 0 0 0 0 0 0 0 0 0 0 0 0 0 0 0 0 0 0 0 0
0 0 0 0 0 0 0 0 0 0 0 0 0 0 0 0 0 0 0 0 0 0 0 0 0 0 0 0 0 0 0 0 0 0 0 0 0 0 0 0 0 0 0 0
0 0 0 0 0 0 0 0 0 0 0 0 0 0 0 0 0 0 0 0 0 0 0 0 0 0 0 0 0 0 0 0 0 0 0 0 0 0 0 0 0 0 0 0
0 0 0 0 0 0 0 0 0 0 0 0 0 0 0 0 0 0 0 0 0 0 0 0 0 0 0 0 0 0 0 0 0 0 0 0 0 0 0 0 0 0 0 0
0 0 0 0 0 0 0 0 0 0 0 0 0 0 0 0 0 0 0 0 0 0 0 0 0 0 0 0 0 0 0 0 0 0 0 0 0 0 0 0 0 0 0 0
0 0 0 0 0 0 0 0 0 0 0 0 0 0 0 0 0 0 0 0 0 0 0 0 0 0 0 0 0 0 0 0 0 0 0 0 0 0 0 0 0 0 0 0
0 0 0 0 0 0 0 0 0 0 0 0 0 0 0 0 0 0 0 0 0 0 0 0 0 0 0 0 0 0 0 0 0 0 0 0 0 0 0 0 0 0 0 0
0 0 0 0 0 0 0 0 0 0 0 0 0 0 0 0 0 0 0 0 0 0 0 0 0 0 0 0 0 0 0 0 0 0 0 0 0 0 0 0 0 0 0 0
0 0 0 0 0 0 0 0 0 0 0 0 0 0 0 0 0 0 0 0 0 0 0 0 0 0 0 0 0 0 0 0 0 0 0 0 0 0 0 0 0 0 0 0
0 0 0 0 0 0 0 0 0 0 0 0 0 0 0 0 0 0 0 0 0 0 0 0 0 0 0 0 0 0 0 0 0 0 0 0 0 0 0 0 0 0 0 0
0 0 0 0 0 0 0 0 0 0 0 0 0 0 0 0 0 0 0 0 0 0 0 0 0 0 0 0 0 0 0 0 0 0 0 0 0 0 0 0 0 0 0 0
0 0 0 0 0 0 0 0 0 0 0 0 0 0 0 0 0 0 0 0 0 0 0 0 0 0 0 0 0 0 0 0 0 0 0 0 0 0 0 0 0 0 0 0
0 0 0 0 0 0 0 0 0 0 0 0 0 0 0 0 0 0 0 0 0 0 0 0 0 0 0 0 0 0 0 0 0 0 0 0 0 0 0 0 0 0 0 0
0 0 0 0 0 0 0 0 0 0 0 0 0 0 0 0 0 0 0 0 0 0 0 0 0 0 0 0 0 0 0 0 0 0 0 0 0 0 0 0 0 0 0 0
0 0 0 0 0 0 0 0 0 0 0 0 0 0 0 0 0 0 0 0 0 0 0 0 0 0 0 0 0 0 0 0 0 0 0 0 0 0 0 0 0 0 0 0
0 0 0 0 0 0 0 0 0 0 0 0 0 0 0 0 0 0 0 0 0 0 0 0 0 0 0 0 0 0 0 0 0 0 0 0 0 0 0 0 0 0 0 0
0 0 0 0 0 0 0 0 0 0 0 0 0 0 0 0 0 0 0 0 0 0 0 0 0 0 0 0 0 0 0 0 0 0 0 0 0 0 0 0 0 0 0 0
0 0 0 0 0 0 0 0 0 0 0 0 0 0 0 0 0 0 0 0 0 0 0 0 0 0 0 0 0 0 0 0 0 0 0 0 0 0 0 0 0 0 0 0
0 0 0 0 0 0 0 0 0 0 0 0 0 0 0 0 0 0 0 0 0 0 0 0 0 0 0 0 0 0 0 0 0 0 0 0 0 0 0 0 0 0 0 0
0 0 0 0 0 0 0 0 0 0 0 0 0 0 0 0 0 0 0 0 0 0 0 0 0 0 0 0 0 0 0 0 0 0 0 0 0 0 0 0 0 0 0 0
0 0 0 0 0 0 0 0 0 0 0 0 0 0 0 0 0 0 0 0 0 0 0 0 0 0 0 0 0 0 0 0 0 0 0 0 0 0 0 0 0 0 0 0
0 0 0 0 0 0 0 0 0 0 0 0 0 0 0 0 0 0 0 0 0 0 0 0 0 0 0 0 0 0 0 0 0 0 0 0 0 0 0 0 0 0 0 0
0 0 0 0 0 0 0 0 0 0 0 0 0 0 0 0 0 0 0 0 0 0 0 0 0 0 0 0 0 0 0 0 0 0 0 0 0 0 0 0 0 0 0 0
0 0 0 0 0 0 0 0 0 0 0 0 0 0 0 0 0 0 0 0 0 0 0 0 0 0 0 0 0 0 0 0 0 0 0 0 0 0 0 0 0 0 0 0
0 0 0 0 0 0 0 0 0 0 0 0 0 0 0 0 0 0 0 0 0 0 0 0 0 0 0 0 0 0 0 0 0 0 0 0 0 0 0 0 0 0 0 0
Wind_Speed
9 9 7 8 9 9 11 11 11 12 13 14 10 10 10 9 8 8 8 8 7 7 7 6 6 5 5 5 4 4 4 5 5 5 5 5 5 5 5 5 5 5 5 6
7 6 7 10 12 12 12 12 14 16 16 11 10 8 8 8 8 8 8 8 8 8 7 7 6 6 5 5 5 4 5 5 5 4 4 4 4 4 4 4 4 4 5 5
6 3 6 11 9 10 8 8 9 12 11 7 8 8 8 8 7 8 9 8 8 8 7 7 6 6 6 6 5 4 5 4 4 4 4 4 4 3 4 4 4 4 5 5
4 3 9 3 1 4 7 8 9 10 9 9 8 8 7 6 6 8 8 9 8 7 7 7 6 6 5 5 4 4 4 4 4 4 4 3 3 3 4 4 4 4 5 5
3 6 10 5 2 3 5 8 7 10 11 9 6 7 6 4 5 7 8 8 7 7 6 6 6 5 5 4 4 4 4 4 4 4 3 3 3 4 4 3 4 4 4 5
5 7 9 3 1 0 2 7 3 5 7 6 3 5 5 4 6 7 7 7 7 6 5 5 5 5 4 4 4 4 5 5 5 4 3 4 4 4 4 3 4 4 4 4
8 9 10 2 2 2 4 5 1 3 4 4 5 6 5 6 6 6 6 6 6 5 5 5 5 4 4 4 5 5 5 5 4 4 4 4 4 3 3 3 3 3 3 3
6 8 10 4 5 6 5 3 3 4 4 5 6 6 6 6 6 6 6 6 6 5 5 5 4 4 5 5 5 5 4 4 4 4 4 3 3 3 3 3 3 3 3 3
9 8 2 5 6 4 3 4 5 4 5 5 5 6 6 7 7 6 6 6 5 5 5 5 4 4 5 5 5 4 4 4 4 4 3 3 3 3 3 3 3 2 2 3
8 10 8 7 7 6 6 6 6 5 5 5 6 6 6 6 6 6 6 6 5 5 6 6 5 4 5 5 4 4 4 4 4 4 3 3 3 3 2 2 3 3 3 3
10 10 8 8 9 8 7 6 6 6 6 6 6 7 6 6 6 6 6 5 5 5 6 6 6 5 5 4 4 4 4 4 4 3 3 3 3 2 3 3 3 3 3 3
9 6 6 7 6 5 6 7 6 6 6 6 6 7 6 6 6 5 6 5 5 5 6 6 6 5 5 4 3 4 4 4 3 3 3 3 2 2 3 4 4 5 4 4
7 6 6 7 7 6 6 6 5 5 6 6 5 5 6 6 5 5 5 6 5 6 6 6 5 6 5 4 3 3 4 4 3 3 2 2 2 2 3 3 4 4 4 4
6 5 6 6 7 6 6 5 4 4 4 4 4 4 4 5 5 5 6 6 5 5 5 5 5 6 5 4 3 4 4 4 4 3 2 2 2 2 2 3 3 2 4 5
6 6 6 5 5 4 4 3 3 4 4 5 4 4 4 5 6 6 6 5 4 4 5 5 5 6 5 4 3 3 3 3 2 2 2 2 2 2 2 3 2 2 2 3
4 3 4 5 5 5 4 4 5 6 5 5 5 5 5 5 6 5 4 3 4 5 5 5 5 5 4 3 3 3 2 4 3 2 2 2 2 2 2 2 2 2 2 3
2 4 4 5 6 6 6 6 6 6 5 6 5 5 4 4 4 4 4 4 4 5 5 4 5 4 3 3 3 2 2 3 3 2 2 2 2 2 2 2 2 2 3 3
5 6 5 5 5 6 6 5 5 5 5 5 4 3 3 4 5 5 4 4 4 4 4 4 4 3 3 3 2 2 2 2 2 2 2 2 2 2 2 2 2 3 3 3
3 3 3 4 4 4 4 4 4 4 4 3 3 4 4 4 5 4 4 3 4 4 4 4 4 3 3 3 3 2 2 2 2 2 2 2 2 2 2 2 2 2 2 2
3 3 3 3 3 3 4 4 3 3 3 3 3 3 4 4 4 4 3 4 4 4 4 4 3 3 3 3 3 2 2 2 2 2 2 2 2 2 2 2 2 2 2 2
3 3 3 3 4 4 4 3 3 3 3 3 3 4 5 5 4 3 3 4 4 3 3 4 3 3 3 2 3 2 1 2 2 2 2 2 2 2 2 2 2 2 2 2
3 3 4 4 3 4 3 3 3 3 3 3 4 4 4 4 4 3 4 4 3 4 3 2 2 3 3 3 1 1 1 1 1 2 2 2 2 2 2 2 2 2 2 2
3 4 4 4 4 4 4 3 3 3 3 4 4 4 4 4 3 3 4 3 3 4 3 2 3 5 4 2 1 1 1 2 2 2 2 2 2 2 2 2 2 2 2 2
3 3 3 3 2 2 4 4 3 3 3 4 4 4 3 3 3 3 3 4 5 5 3 3 5 5 3 1 1 1 2 2 2 2 2 2 2 2 2 2 2 2 2 3
3 3 2 2 2 3 3 3 3 3 3 3 3 3 3 3 3 3 3 3 4 4 3 3 4 4 2 1 2 2 2 2 2 2 2 2 2 2 2 2 2 2 2 3
3 3 3 3 3 2 2 2 2 2 2 3 3 3 2 2 3 2 2 3 3 4 3 2 2 3 2 2 2 2 2 2 2 2 2 2 2 2 2 2 3 3 3 3
2 2 2 2 2 2 2 2 2 3 3 3 3 3 2 2 2 2 2 2 2 2 2 2 2 2 2 2 2 2 2 2 2 2 2 2 2 2 2 3 3 3 3 3
Wind_Direction
268 278 274 266 261 238 227 236 250 265 270 281 293 294 296 301 305 308 310 312 310 308 307 307 306 302 301 299 298 290 279 273 267 264 260 257 254 252 248 246 240 236 234 234
268 262 266 270 263 248 243 247 252 267 275 284 294 296 294 297 301 301 305 309 311 310 310 307 304 303 301 299 297 289 279 275 272 266 260 256 255 254 251 250 248 244 239 238
271 299 285 264 246 224 229 231 238 251 266 294 295 296 295 298 296 295 302 307 310 310 309 306 304 302 297 297 298 292 288 284 277 266 260 260 259 255 251 253 250 249 249 244
281 293 254 257 79 220 234 243 238 256 280 291 290 299 292 290 293 301 305 306 307 311 311 311 309 308 303 301 299 296 297 299 292 283 273 269 261 255 258 257 252 253 252 252
243 263 273 274 218 200 229 263 237 250 272 290 311 302 283 300 304 299 302 305 308 311 311 312 313 314 309 305 305 304 304 303 300 291 281 276 270 266 265 259 257 256 256 252
228 250 258 272 112 335 231 265 232 238 267 292 311 290 298 331 320 311 310 311 313 317 316 314 318 320 309 307 310 307 307 306 305 295 282 275 271 270 267 259 257 258 259 256
231 246 263 279 137 178 232 279 312 248 259 251 250 273 305 311 309 309 311 312 315 314 311 312 320 318 306 307 304 306 311 309 304 299 288 279 274 269 266 261 261 260 263 266
207 229 251 146 155 208 259 326 292 275 263 255 266 284 293 297 301 306 310 312 313 312 312 317 319 312 305 304 308 315 313 309 305 302 296 287 280 275 269 264 258 262 268 275
210 231 294 178 217 253 298 284 279 278 274 263 269 276 285 290 295 299 304 308 312 308 309 315 315 307 299 306 313 312 311 308 307 305 298 288 277 272 267 258 253 257 260 266
252 259 260 250 258 272 273 274 280 282 279 267 268 276 283 287 291 295 301 305 307 305 304 309 313 305 297 307 310 304 305 307 307 303 301 293 278 266 258 253 253 254 254 260
256 271 282 256 248 260 266 267 271 277 272 266 268 277 281 284 286 290 296 301 302 297 298 303 311 310 311 309 308 303 302 301 300 297 295 293 284 278 270 264 257 257 261 265
251 253 252 272 275 265 256 260 262 268 276 273 264 270 279 281 284 287 291 297 300 298 299 302 309 310 313 311 304 298 299 303 302 302 299 297 298 302 299 290 292 280 282 282
259 280 275 280 282 276 271 272 271 264 264 273 275 270 274 280 285 287 290 294 294 294 296 300 305 306 309 309 301 290 290 295 295 293 294 297 296 297 305 315 315 315 312 309
263 276 274 270 275 282 279 285 289 286 279 274 274 274 275 280 285 285 286 289 290 291 294 297 300 302 309 308 299 292 289 292 292 289 292 293 290 290 293 298 304 308 316 321
273 270 268 281 285 287 285 283 286 286 292 293 287 278 275 276 279 282 286 291 290 289 291 295 297 302 311 308 298 292 290 291 290 288 289 289 288 288 292 297 299 305 317 320
294 291 276 271 273 276 276 271 270 277 283 285 285 282 278 277 281 285 289 286 281 287 292 293 293 301 307 304 299 294 289 295 293 286 285 285 283 284 288 293 298 303 309 316
258 276 276 277 273 274 270 265 266 271 276 274 275 281 282 282 285 288 291 289 281 283 286 286 292 301 302 295 289 289 289 290 288 281 276 278 278 279 282 285 290 295 301 312
255 258 254 258 261 267 272 270 268 271 273 276 280 278 272 270 276 285 292 298 297 293 291 291 297 303 297 294 285 282 279 280 273 269 273 274 277 277 275 277 283 289 298 307
271 269 271 269 270 268 270 273 275 276 277 273 269 270 272 275 279 286 292 290 288 292 301 304 308 307 297 291 289 277 274 274 267 264 267 271 276 275 275 278 282 286 292 298
284 286 288 289 290 276 273 279 281 282 281 274 273 278 281 282 283 283 280 276 278 287 297 301 300 294 293 287 291 279 269 264 263 266 266 260 260 268 271 274 279 282 285 287
285 289 290 290 293 289 279 277 275 279 284 273 264 269 276 284 285 277 276 286 296 300 294 297 300 298 295 296 285 276 272 272 273 272 268 262 261 264 267 270 272 276 280 283
279 281 284 286 286 288 292 286 277 277 282 280 277 279 281 286 288 282 269 273 293 306 308 297 298 302 310 314 301 298 295 288 281 276 269 264 264 267 270 274 276 279 280 281
272 274 276 278 277 285 294 288 280 274 274 275 273 272 272 278 278 278 287 290 291 296 306 297 303 310 321 338 326 302 293 286 282 277 274 271 269 265 265 272 277 280 282 283
267 271 278 284 281 278 286 293 292 284 282 281 278 276 276 283 285 276 281 295 301 302 300 297 308 315 330 330 302 291 283 280 280 278 274 271 271 268 263 264 271 277 279 282
265 270 272 264 263 271 281 295 299 294 292 293 294 289 277 268 273 289 292 286 290 302 299 301 312 323 329 302 292 288 284 276 272 274 273 272 272 272 270 266 264 269 273 276
266 268 267 264 269 278 283 281 284 290 292 296 301 298 294 289 280 282 287 289 289 297 306 306 309 315 308 299 291 288 286 287 291 291 280 276 272 271 271 271 273 272 273 273
280 282 281 284 281 273 268 267 273 280 279 279 290 297 301 306 305 302 298 296 300 306 310 310 310 307 303 299 296 293 291 288 283 280 276 273 272 273 276 277 278 276 275 273